WD6FGE Weather Reports


Display with metric or nautical units.
time (UTC)temp
F
wind
direction
speed
MPH
gust
MPH
rain 1hr
in
rain 24hr
in
rain mn
in
humidity
%
barometer
mb
20170627064501 63 226 0.0 1.0 0.00 0.00 0.00 58 1012.4
20170627063438 64 207 0.0 0.0 0.00 0.00 0.00 54 1012.3
20170627062458 64 189 0.0 4.0 0.00 0.00 0.00 52 1012.3
20170627061431 65 214 1.0 5.0 0.00 0.00 0.00 52 1012.2
20170627060412 63 221 2.0 5.0 0.00 0.00 0.00 55 1012.3
20170627055351 62 244 0.0 0.0 0.00 0.00 0.00 59 1012.3
20170627054401 62 245 0.0 0.0 0.00 0.00 0.00 58 1012.3
20170627053344 63 246 0.0 0.0 0.00 0.00 0.00 57 1012.2
20170627052314 63 246 0.0 0.0 0.00 0.00 0.00 56 1012.2
20170627051306 63 209 0.0 1.0 0.00 0.00 0.00 56 1012.1
20170627050231 63 209 0.0 2.0 0.00 0.00 0.00 56 1011.9
20170627045205 64 219 1.0 3.0 0.00 0.00 0.00 54 1011.8
20170627044206 65 210 1.0 4.0 0.00 0.00 0.00 54 1011.7
20170627043214 65 246 0.0 8.0 0.00 0.00 0.00 54 1011.7
20170627042233 66 161 1.0 8.0 0.00 0.00 0.00 53 1011.4
20170627041250 66 256 0.0 1.0 0.00 0.00 0.00 52 1011.1
20170627040234 67 279 0.0 2.0 0.00 0.00 0.00 52 1011.0
20170627035205 68 207 0.0 2.0 0.00 0.00 0.00 52 1010.9
20170627034220 69 304 0.0 1.0 0.00 0.00 0.00 51 1010.9
20170627033218 70 305 0.0 0.0 0.00 0.00 0.00 49 1010.9
20170627032236 72 305 0.0 1.0 0.00 0.00 0.00 46 1010.9
20170627031245 73 275 0.0 2.0 0.00 0.00 0.00 44 1010.9
20170627030243 74 217 1.0 8.0 0.00 0.00 0.00 41 1010.8
20170627025210 75 272 1.0 8.0 0.00 0.00 0.00 38 1010.8
20170627024217 75 260 2.0 9.0 0.00 0.00 0.00 38 1010.7
20170627023230 76 180 3.0 9.0 0.00 0.00 0.00 37 1010.7
20170627022208 76 255 2.0 10.0 0.00 0.00 0.00 37 1010.6
20170627021138 77 244 4.0 10.0 0.00 0.00 0.00 36 1010.5
20170627020123 77 179 4.0 9.0 0.00 0.00 0.00 36 1010.5
20170627015128 78 200 3.0 10.0 0.00 0.00 0.00 37 1010.5
20170627014115 78 251 4.0 14.0 0.00 0.00 0.00 37 1010.5
20170627013051 79 234 5.0 14.0 0.00 0.00 0.00 36 1010.4
20170627012055 79 186 5.0 13.0 0.00 0.00 0.00 37 1010.3
20170627011045 80 209 5.0 14.0 0.00 0.00 0.00 37 1010.2
20170627010026 81 227 5.0 14.0 0.00 0.00 0.00 36 1010.1
20170627004950 81 159 6.0 14.0 0.00 0.00 0.00 35 1010.1
20170627003936 82 181 6.0 13.0 0.00 0.00 0.00 37 1010.2
20170627002920 83 188 5.0 15.0 0.00 0.00 0.00 36 1010.2
20170627001926 82 194 5.0 15.0 0.00 0.00 0.00 37 1010.3
20170627000931 83 259 5.0 17.0 0.00 0.00 0.00 38 1010.4
20170626235939 83 188 5.0 17.0 0.00 0.00 0.00 35 1010.4
20170626234957 83 289 5.0 13.0 0.00 0.00 0.00 35 1010.5
20170626234016 83 254 5.0 14.0 0.00 0.00 0.00 35 1010.6
20170626233008 83 286 6.0 15.0 0.00 0.00 0.00 35 1010.7
20170626232001 84 194 6.0 20.0 0.00 0.00 0.00 35 1010.9
20170626231000 83 255 6.0 20.0 0.00 0.00 0.00 36 1011.1
20170626225935 83 240 7.0 17.0 0.00 0.00 0.00 35 1011.1
20170626224957 83 242 8.0 18.0 0.00 0.00 0.00 35 1011.2
20170626224016 84 200 7.0 22.0 0.00 0.00 0.00 37 1011.2
20170626223017 83 219 8.0 22.0 0.00 0.00 0.00 37 1011.3
20170626221947 83 190 8.0 15.0 0.00 0.00 0.00 36 1011.3
20170626221008 83 196 9.0 20.0 0.00 0.00 0.00 38 1011.1
20170626220011 84 198 7.0 20.0 0.00 0.00 0.00 35 1011.2
20170626214958 84 200 6.0 17.0 0.00 0.00 0.00 37 1011.1
20170626213922 84 226 6.0 17.0 0.00 0.00 0.00 36 1011.2
20170626212852 84 281 7.0 16.0 0.00 0.00 0.00 37 1011.0
20170626211851 83 269 8.0 18.0 0.00 0.00 0.00 37 1011.0
20170626210900 84 146 7.0 21.0 0.00 0.00 0.00 36 1010.9
20170626205858 84 177 9.0 21.0 0.00 0.00 0.00 35 1010.9
20170626204837 84 210 7.0 18.0 0.00 0.00 0.00 34 1010.8
20170626203837 84 200 7.0 18.0 0.00 0.00 0.00 36 1010.8
20170626202850 85 188 7.0 16.0 0.00 0.00 0.00 35 1010.7
20170626201900 86 143 4.0 11.0 0.00 0.00 0.00 35 1010.8
20170626200828 85 283 3.0 10.0 0.00 0.00 0.00 35 1010.7
20170626195845 84 151 4.0 10.0 0.00 0.00 0.00 37 1010.9
20170626194843 84 284 4.0 11.0 0.00 0.00 0.00 37 1010.9
20170626193834 85 239 4.0 11.0 0.00 0.00 0.00 37 1010.8
20170626192845 85 272 4.0 11.0 0.00 0.00 0.00 36 1010.9
20170626191824 85 198 3.0 13.0 0.00 0.00 0.00 37 1011.0
20170626190757 84 216 4.0 13.0 0.00 0.00 0.00 36 1011.0
20170626185741 83 153 5.0 11.0 0.00 0.00 0.00 35 1011.2
20170626184726 85 262 4.0 15.0 0.00 0.00 0.00 35 1011.0
20170626183654 85 275 6.0 15.0 0.00 0.00 0.00 29 1011.1
20170626182632 84 217 2.0 13.0 0.00 0.00 0.00 33 1011.0
20170626181641 83 248 3.0 13.0 0.00 0.00 0.00 38 1011.0
20170626180700 83 320 3.0 8.0 0.00 0.00 0.00 40 1010.9
20170626175657 83 248 1.0 5.0 0.00 0.00 0.00 41 1011.0
20170626174657 82 291 2.0 7.0 0.00 0.00 0.00 42 1011.0
20170626173719 81 216 1.0 7.0 0.00 0.00 0.00 43 1011.1
20170626172740 80 144 2.0 4.0 0.00 0.00 0.00 51 1011.1
20170626171717 79 194 1.0 4.0 0.00 0.00 0.00 51 1011.2
20170626170709 78 148 0.0 4.0 0.00 0.00 0.00 55 1011.3
20170626165654 77 207 1.0 4.0 0.00 0.00 0.00 55 1011.3
20170626164627 76 304 0.0 1.0 0.00 0.00 0.00 54 1011.5
20170626163604 75 225 1.0 2.0 0.00 0.00 0.00 54 1011.8
20170626162625 75 117 0.0 3.0 0.00 0.00 0.00 55 1011.8
20170626161628 74 151 1.0 3.0 0.00 0.00 0.00 55 1011.9
20170626160607 74 143 0.0 2.0 0.00 0.00 0.00 54 1012.1
20170626155548 73 39 0.0 0.0 0.00 0.00 0.00 53 1012.0
20170626154528 72 39 0.0 2.0 0.00 0.00 0.00 55 1012.1
20170626153459 71 66 0.0 1.0 0.00 0.00 0.00 60 1012.1
20170626152512 70 66 0.0 0.0 0.00 0.00 0.00 65 1012.0
20170626151441 68 66 0.0 1.0 0.00 0.00 0.00 69 1012.1
20170626150416 67 66 0.0 0.0 0.00 0.00 0.00 72 1012.1
20170626145421 64 66 0.0 0.0 0.00 0.00 0.00 76 1012.4
20170626144351 60 66 0.0 0.0 0.00 0.00 0.00 89 1012.4
20170626143409 57 66 0.0 0.0 0.00 0.00 0.00 90 1012.5
20170626142407 56 66 0.0 0.0 0.00 0.00 0.00 91 1012.6
20170626141420 55 66 0.0 2.0 0.00 0.00 0.00 92 1012.6
20170626140439 54 169 1.0 2.0 0.00 0.00 0.00 92 1012.6
20170626135422 53 270 0.0 0.0 0.00 0.00 0.00 91 1012.6
20170626134415 53 270 0.0 0.0 0.00 0.00 0.00 91 1012.5
20170626133340 53 270 0.0 0.0 0.00 0.00 0.00 91 1012.6
20170626132319 53 270 0.0 0.0 0.00 0.00 0.00 91 1012.7
20170626131253 53 270 0.0 0.0 0.00 0.00 0.00 90 1012.5
20170626130247 53 270 0.0 2.0 0.00 0.00 0.00 90 1012.4
20170626125220 53 270 0.0 0.0 0.00 0.00 0.00 90 1012.4
20170626124149 53 270 0.0 0.0 0.00 0.00 0.00 90 1012.3
20170626123128 53 270 0.0 1.0 0.00 0.00 0.00 90 1012.2
20170626122134 53 270 0.0 1.0 0.00 0.00 0.00 90 1012.1
20170626121143 53 270 0.0 1.0 0.00 0.00 0.00 89 1012.1
20170626120149 54 270 0.0 1.0 0.00 0.00 0.00 88 1012.0
20170626115154 54 270 0.0 0.0 0.00 0.00 0.00 88 1011.8
20170626114213 55 270 0.0 1.0 0.00 0.00 0.00 88 1011.8
20170626113202 55 270 0.0 1.0 0.00 0.00 0.00 87 1011.7
20170626112155 55 270 0.0 0.0 0.00 0.00 0.00 86 1011.8
20170626111130 56 270 0.0 0.0 0.00 0.00 0.00 87 1011.8
20170626110147 56 270 0.0 0.0 0.00 0.00 0.00 86 1011.7
20170626105144 56 270 0.0 0.0 0.00 0.00 0.00 85 1011.6
20170626104140 57 270 0.0 0.0 0.00 0.00 0.00 84 1011.6
20170626103203 57 270 0.0 0.0 0.00 0.00 0.00 85 1011.7
20170626102158 57 270 0.0 2.0 0.00 0.00 0.00 85 1011.6
20170626101143 57 270 0.0 2.0 0.00 0.00 0.00 85 1011.6
20170626100142 57 271 0.0 2.0 0.00 0.00 0.00 84 1011.7
20170626095129 57 255 0.0 1.0 0.00 0.00 0.00 84 1011.5
20170626094128 58 255 0.0 0.0 0.00 0.00 0.00 83 1011.6
20170626093130 58 255 0.0 1.0 0.00 0.00 0.00 83 1011.5
20170626092126 58 255 0.0 1.0 0.00 0.00 0.00 83 1011.5
20170626091053 59 254 0.0 0.0 0.00 0.00 0.00 82 1011.5
20170626090035 59 254 0.0 0.0 0.00 0.00 0.00 81 1011.5
20170626085052 60 254 0.0 0.0 0.00 0.00 0.00 81 1011.6
20170626084045 60 254 0.0 2.0 0.00 0.00 0.00 80 1011.6
20170626083041 61 238 0.0 1.0 0.00 0.00 0.00 79 1011.7
20170626082051 61 238 0.0 1.0 0.00 0.00 0.00 78 1011.8
20170626081016 62 238 0.0 1.0 0.00 0.00 0.00 78 1011.7
20170626075951 62 237 0.0 0.0 0.00 0.00 0.00 77 1011.8
20170626074914 62 237 0.0 0.0 0.00 0.00 0.00 78 1011.7
20170626073934 62 237 0.0 0.0 0.00 0.00 0.00 75 1011.6
20170626072920 62 238 0.0 2.0 0.00 0.00 0.00 78 1011.5
20170626071845 62 211 0.0 0.0 0.00 0.00 0.00 75 1011.5
20170626070838 62 211 0.0 0.0 0.00 0.00 0.00 74 1011.6
20170626065812 63 211 0.0 0.0 0.00 0.00 0.00 74 1011.5